Sich 1 Rocket - Orbit

View from above orbital plane
View from above orbital plane
View from above satellite
View from above satellite

Ground track
Ground track

The orbit data is extracted from the following two-line orbital elements,

1 23659U 95046C   13139.90910726  .00000355  00000-0  46267-4 0  6090
2 23659 082.5319 246.6579 0027150 065.8261 066.3498 14.77475020954570
Epoch (UTC): 19 May 2013 21:49:06
Eccentricity: 0.0027150
inclination: 82.5319°
perigee height: 618 km
apogee height: 656 km
right ascension of ascending node: 246.6579°
argument of perigee: 65.8261°
revolutions per day: 14.77475020
mean anomaly at epoch: 66.3498°
orbit number at epoch: 95457

The dashed part of the orbit path shows where the satellite is in the earth's shadow,  

Developed and maintained by Chris Peat, Heavens-Above GmbH. Please read the updated FAQ before sending e-mail. Imprint. DLR